Location: Ellingshausen
(50.5460°N, 10.4723°E)
Time: 00:14:19
(UTC+00:00)

CZ-4C R/B - Pass Details

Date: 18 January 2026
Orbit: 483 x 1496 km, 63.4° (Epoch: 9 February)

Event Time Altitude Azimuth Distance (km) Brightness Sun altitude
Exits shadow 04:15:11 24° 347° (NNW) 1,861 3.8 -27.3°
Maximum altitude 04:17:05 28° 15° (NNE) 1,802 4.0 -27.0°
Drops below altitude 10° 04:23:15 10° 72° (ENE) 3,117 6.0 -26.0°
Sets 04:26:50 0° 83° (E) 4,248 7.2 -25.4°
